Theta_e
302 297 294 297 299 299 297 295 294 297 300 299 298 301 305 310 311 311 314 317 315 317 324 327 328 333 337 346 350 351 352 354 354 354 347 345 342 346 350 352 356 357 354 352
297 294 299 300 299 297 296 293 293 296 299 298 298 297 302 308 309 312 313 314 316 320 319 325 330 341 342 346 347 349 349 349 352 353 350 351 351 348 349 353 355 357 354 353
294 296 300 298 296 294 294 293 293 293 296 298 296 294 299 304 308 311 313 316 317 317 320 324 326 336 340 339 340 340 344 348 350 350 353 351 355 357 353 352 354 355 354 353
295 298 297 296 295 296 290 296 295 294 292 287 296 287 297 301 303 307 310 313 316 317 319 322 326 328 335 338 340 342 345 345 349 353 346 346 344 343 350 352 352 352 354 351
293 295 295 294 295 297 293 298 295 294 291 290 291 288 292 299 300 305 309 311 315 318 318 319 322 325 330 333 335 339 345 345 345 348 347 344 348 348 355 353 353 351 352 351
295 300 298 297 299 298 299 295 294 293 291 284 288 288 289 294 299 304 309 311 314 316 318 320 323 327 325 327 329 333 334 341 345 349 349 352 348 349 347 349 348 349 348 346
293 294 299 300 294 298 296 291 284 282 282 282 291 288 291 298 301 303 307 311 313 316 316 318 319 321 325 326 326 327 339 339 345 347 351 348 354 350 356 351 347 347 344 344
287 285 293 299 294 292 293 291 284 277 279 282 290 284 290 301 303 305 309 311 313 314 317 318 320 321 320 323 327 328 334 338 343 346 349 350 354 351 355 350 349 347 345 345
286 287 295 296 297 296 293 288 294 287 288 283 286 290 296 301 302 305 306 309 312 314 318 318 320 327 327 330 339 333 333 336 338 346 350 351 352 354 351 353 356 349 348 348
292 285 293 294 296 298 294 296 287 288 279 277 284 286 288 294 299 304 306 307 312 315 314 318 321 326 336 337 339 338 338 336 346 348 350 351 352 354 355 354 350 349 348 346
294 290 290 294 290 290 292 290 290 291 287 280 279 285 297 298 301 301 306 308 312 313 314 316 320 331 333 335 334 336 341 345 346 349 351 351 352 351 349 349 348 349 348 345
295 291 286 288 296 297 295 291 293 285 284 287 285 285 300 301 301 300 299 310 312 313 314 315 329 331 331 333 332 337 341 343 347 349 349 350 349 348 347 346 347 346 345 343
295 289 283 285 290 293 291 291 292 292 291 286 283 285 299 299 298 299 299 302 310 311 311 314 328 329 332 333 337 338 343 343 346 345 344 344 345 345 345 344 344 343 343 342
299 291 286 282 286 290 287 289 291 291 287 287 287 289 294 295 294 298 300 303 309 310 310 314 317 329 333 336 338 340 341 344 345 342 341 342 343 343 342 343 343 341 340 338
296 288 290 290 291 291 290 290 291 289 291 286 288 288 293 296 297 298 301 303 306 307 308 313 316 329 334 335 338 339 340 342 342 339 339 340 341 341 340 339 339 337 338 336
296 289 290 288 291 292 289 291 291 291 292 292 292 290 297 299 300 300 302 304 304 306 308 311 314 325 331 334 331 337 338 338 339 337 337 338 336 337 338 339 339 339 336 336
293 290 287 284 290 290 285 290 291 292 293 293 288 294 299 299 300 301 302 305 305 306 308 311 316 326 333 335 334 333 335 339 337 334 334 334 335 336 337 337 336 337 335 335
292 290 288 285 288 279 290 296 295 292 293 295 295 296 297 299 303 305 307 305 308 307 309 312 319 326 330 336 335 334 335 334 334 332 332 333 333 334 336 335 335 337 336 336
298 290 286 284 284 287 289 293 292 289 289 296 294 296 298 301 302 303 310 312 313 312 311 319 322 328 329 335 334 333 333 333 331 330 330 331 332 332 333 335 332 337 337 335
296 292 288 286 281 279 288 294 298 295 284 295 297 297 297 298 295 302 308 309 311 314 317 318 321 326 328 334 334 332 331 331 330 329 330 331 332 332 335 336 335 337 338 335
290 287 284 286 284 288 293 297 297 284 287 298 300 299 298 297 300 305 308 309 311 313 315 320 322 327 333 333 335 333 332 330 330 330 330 332 334 336 337 338 338 336 336 335
291 289 288 288 284 282 297 297 290 296 300 299 300 300 299 301 303 305 307 308 310 311 315 319 323 327 328 334 336 332 331 332 331 329 329 333 335 332 335 337 336 337 335 333
290 293 292 291 292 301 302 300 305 304 300 301 300 300 301 301 302 304 305 307 310 312 314 319 323 328 334 334 335 332 332 332 330 329 330 332 334 332 334 336 335 333 333 330
297 300 295 295 298 299 302 303 303 303 302 303 302 301 301 300 302 303 306 307 309 312 314 318 323 324 329 332 335 334 332 331 330 330 330 333 332 331 334 333 333 332 331 330
298 299 296 296 299 300 300 301 302 302 302 302 302 302 301 301 304 304 305 307 309 311 315 321 323 328 330 332 336 333 331 331 331 330 331 332 329 329 323 315 315 327 319 327
300 298 295 291 299 299 299 302 303 300 300 302 301 301 303 304 304 306 306 308 309 313 318 319 322 326 330 333 334 331 330 333 331 330 331 329 329 330 326 327 321 297 297 296
Wind_Speed
10 10 13 17 17 20 21 22 27 26 26 28 24 25 29 23 25 24 20 18 24 24 23 19 21 17 13 11 11 9 8 6 3 3 4 4 6 5 5 5 6 6 8 10
12 13 13 11 14 20 21 24 27 26 23 22 25 30 31 23 25 23 24 22 22 20 24 17 10 5 8 9 10 9 8 6 6 3 3 3 4 6 6 5 5 6 9 9
14 16 15 17 16 21 21 21 22 25 22 24 26 30 29 28 25 21 21 24 23 25 20 17 13 8 9 10 11 10 9 9 8 9 4 4 5 3 4 5 5 6 8 8
12 15 18 20 17 18 19 20 24 23 21 19 20 20 22 22 25 23 24 21 21 21 22 18 12 11 9 8 8 8 9 9 9 8 7 8 6 6 4 4 7 7 7 9
16 17 17 20 22 20 24 21 19 21 21 23 23 18 21 23 23 25 22 26 18 20 22 23 20 18 9 8 9 9 9 12 13 11 10 8 7 5 3 4 10 8 7 7
19 10 14 12 19 19 28 19 18 21 18 19 26 23 24 20 24 24 24 22 24 22 19 23 20 11 14 16 11 11 13 15 15 12 12 8 10 8 7 7 9 8 7 5
16 13 8 10 13 27 16 9 12 16 15 18 24 24 19 24 24 32 29 14 22 22 23 19 19 16 10 10 12 12 13 15 14 13 12 11 9 12 7 12 10 10 7 4
14 12 9 12 12 21 16 13 9 13 18 19 22 14 17 27 24 31 25 17 17 14 13 13 7 7 14 16 15 12 9 13 13 13 13 11 9 7 7 10 9 9 9 9
15 18 18 18 9 11 17 16 15 22 17 12 20 23 20 23 24 27 23 23 9 2 4 5 8 6 8 7 5 11 10 11 12 13 11 11 11 9 10 9 8 10 11 10
15 19 20 23 14 14 17 17 16 9 10 15 16 19 13 19 16 22 24 23 14 6 2 7 9 8 4 7 7 8 9 13 13 13 12 11 10 9 10 8 9 8 10 11
17 14 19 22 15 21 12 15 8 13 6 8 13 13 7 20 22 26 18 25 11 8 7 9 10 1 7 11 15 9 10 12 12 13 12 12 11 11 10 8 7 8 8 10
11 7 17 21 25 12 9 11 14 4 6 8 10 21 10 14 24 26 43 8 11 5 4 6 7 3 10 15 10 10 10 13 13 13 12 12 12 12 10 8 8 8 6 7
8 6 13 15 10 13 8 16 18 8 15 17 15 14 11 22 28 30 30 33 3 7 8 9 6 4 10 9 11 12 11 13 14 13 11 11 12 11 9 9 9 8 7 6
9 11 14 14 20 17 11 15 21 20 15 15 15 21 17 14 11 22 28 26 8 5 9 5 8 5 8 5 13 14 14 14 14 13 12 12 11 11 9 8 8 7 7 6
4 9 15 20 22 21 23 22 21 25 26 19 17 18 12 9 9 11 23 27 26 7 9 7 8 4 5 3 9 12 13 14 13 13 14 12 11 10 9 8 8 7 6 5
3 7 15 22 23 23 20 20 21 24 20 22 20 18 15 5 13 14 24 26 12 9 8 8 10 4 4 3 7 10 13 13 12 13 13 12 11 11 9 8 7 6 8 7
3 4 8 13 14 15 13 12 14 20 18 17 17 19 22 17 18 23 17 21 12 8 7 6 7 10 6 2 2 9 12 13 12 12 13 12 12 12 11 9 8 6 8 6
6 5 2 10 11 6 5 11 13 19 20 12 15 16 19 19 17 17 18 17 16 11 11 8 6 9 8 1 2 6 9 12 13 13 13 13 12 12 12 11 8 6 7 7
12 4 4 5 8 15 3 6 7 9 27 14 7 14 16 18 19 17 18 22 22 13 10 6 6 3 2 6 4 5 4 13 13 13 12 12 12 11 10 11 10 7 7 6
8 3 3 5 5 5 2 5 5 3 12 8 11 12 11 12 10 5 18 20 18 18 13 12 14 3 3 10 7 10 10 12 12 13 12 11 12 11 10 9 9 7 7 6
5 3 5 8 6 3 9 10 9 4 4 15 18 16 14 11 12 16 18 19 16 16 16 17 14 2 4 14 11 4 12 12 12 12 11 11 9 11 10 9 7 7 7 6
4 4 4 4 4 4 2 11 4 5 9 9 16 19 17 18 19 15 18 18 15 19 19 18 9 4 3 12 8 7 12 11 13 12 12 13 12 10 8 9 7 6 7 7
5 5 4 4 5 10 11 14 7 7 8 11 12 14 17 19 19 18 14 17 16 17 17 16 7 10 7 14 11 8 12 11 13 13 11 12 8 11 8 9 8 7 5 6
11 14 9 11 6 11 11 9 9 11 10 8 13 15 17 16 18 18 16 14 16 16 16 13 5 9 13 10 10 9 12 12 13 14 13 12 9 7 6 5 7 7 6 5
15 14 13 16 14 11 10 14 13 13 15 17 13 13 17 17 19 17 14 14 15 15 18 6 7 10 14 13 10 10 13 13 14 14 12 11 8 8 8 8 4 6 4 2
3 13 4 3 18 12 13 14 16 17 16 12 13 14 13 14 14 14 12 13 14 19 13 11 10 11 12 14 9 14 13 13 14 13 11 9 8 8 7 8 9 16 10 13
Wind_Direction
323 299 272 274 272 277 285 280 274 275 288 296 291 269 264 245 241 239 232 241 227 252 261 227 234 219 192 164 154 167 181 220 212 190 207 225 220 221 202 207 214 182 168 174
277 258 270 299 295 288 280 281 281 287 294 293 289 282 277 270 254 239 229 220 248 240 245 246 249 217 162 158 162 170 188 206 224 197 214 231 224 219 186 180 200 158 163 176
306 302 296 284 284 285 278 276 278 286 296 290 283 280 278 271 277 271 258 218 217 244 258 218 219 194 175 167 172 180 189 198 208 223 200 218 236 248 155 174 158 155 165 184
299 293 286 281 275 275 276 279 277 278 281 276 278 279 263 268 260 263 270 268 215 221 252 256 250 244 208 171 168 185 193 196 208 202 203 215 204 203 197 163 154 156 176 194
291 299 323 305 302 292 285 282 279 284 284 285 269 263 270 269 261 250 237 256 252 214 224 246 243 232 229 221 194 194 197 196 206 195 197 215 208 209 165 173 151 155 177 185
269 310 276 301 320 294 287 278 282 284 274 260 268 258 263 260 269 265 247 237 240 242 224 227 236 224 234 236 211 206 207 203 201 189 193 212 194 216 180 174 145 156 167 174
309 307 34 33 356 310 274 284 284 265 253 265 261 254 256 263 257 262 268 263 233 228 226 234 235 231 227 227 237 238 194 194 183 184 182 202 197 210 196 147 154 159 154 165
309 304 329 178 218 297 293 295 266 273 281 281 299 285 288 296 273 265 272 279 274 284 227 223 229 255 247 233 217 211 196 181 178 182 184 194 196 194 160 154 159 152 165 174
309 300 307 297 328 306 307 278 293 291 299 301 285 271 280 268 263 260 253 261 237 236 91 201 232 260 252 256 251 182 183 171 183 186 174 187 190 182 156 163 162 157 172 175
318 307 302 299 297 281 265 289 284 280 279 293 283 281 248 272 269 266 254 242 237 152 171 249 247 236 314 307 288 164 163 178 177 169 172 179 165 164 149 151 151 125 124 142
314 308 306 308 271 251 298 276 268 280 230 264 287 276 11 357 345 333 264 230 178 148 219 218 237 78 257 254 254 157 166 157 162 163 167 158 173 127 124 137 121 109 114 137
352 296 291 293 296 345 211 351 347 310 284 279 295 266 31 359 356 348 339 126 148 145 347 280 101 234 240 234 153 150 166 156 162 159 158 154 127 130 135 129 122 121 129 138
335 297 310 300 285 10 342 320 299 275 284 268 273 289 311 15 355 338 326 329 90 63 325 288 103 326 245 175 145 159 155 157 158 147 136 129 133 135 137 131 132 142 157 162
275 267 264 276 291 297 277 265 278 280 257 261 253 292 323 65 350 323 311 312 272 117 285 323 351 354 255 183 158 159 163 154 150 142 133 135 138 140 136 139 147 155 149 174
325 271 281 278 283 287 288 270 251 269 261 278 295 292 311 141 184 285 281 277 287 287 303 22 339 355 242 49 158 154 154 144 139 134 135 140 135 132 136 141 166 162 152 129
324 283 297 290 283 281 295 295 290 274 311 324 327 288 319 101 175 214 256 271 298 298 345 341 327 306 225 36 313 137 140 138 137 133 133 135 139 152 157 160 136 126 122 119
220 285 300 285 291 304 287 315 316 307 311 329 326 341 329 343 355 345 301 313 321 321 296 328 327 21 303 261 355 127 135 139 133 132 141 154 162 158 161 132 137 154 138 135
172 221 246 282 308 263 27 22 341 311 291 306 338 338 322 319 334 309 288 292 304 301 327 310 335 50 339 67 321 112 129 138 140 146 161 159 166 153 148 150 156 150 144 135
200 137 268 287 299 276 309 350 336 327 299 334 354 339 320 313 310 279 7 347 354 331 287 305 315 88 29 252 167 145 161 151 154 159 159 161 156 157 161 138 147 129 124 138
114 93 239 320 294 292 114 312 308 260 281 313 300 321 313 302 283 303 341 325 331 324 329 317 302 110 324 205 198 163 196 160 164 159 160 162 152 158 126 132 127 137 148 153
173 182 227 250 264 245 205 230 132 211 341 304 312 319 318 303 298 308 302 304 307 308 304 293 287 170 286 195 200 200 171 171 162 153 151 147 130 110 115 116 125 144 149 150
269 278 242 224 255 281 192 309 250 274 286 289 287 309 309 298 295 298 298 298 303 296 290 289 347 206 211 205 186 220 159 173 149 147 145 119 122 130 126 128 139 141 139 146
283 290 277 210 268 350 294 257 280 254 266 279 299 310 299 293 292 293 290 291 290 288 291 293 316 300 210 203 186 229 158 172 149 138 132 128 127 116 128 138 134 131 147 148
301 302 290 292 235 296 300 322 317 334 359 312 310 311 290 282 287 290 282 279 280 285 287 292 308 296 217 186 187 206 170 165 147 127 125 115 117 114 115 95 151 140 148 158
279 287 283 290 301 307 318 330 27 352 329 322 314 290 278 279 276 266 268 272 279 284 279 314 288 286 215 187 184 172 179 162 130 132 131 132 130 107 89 63 12 93 37 152
334 290 295 255 273 315 328 8 3 341 332 313 300 294 294 284 275 265 269 269 270 272 294 287 282 287 215 197 183 164 180 144 135 139 136 147 148 127 125 113 83 46 43 65